This demonstration page uses our WeatherBlox Daily Observations layout. Learn more.

Left ArrowRight Arrow

30.21309, -93.2044

Hourly Observations for March 24, 2015

Temp ( °F °C ) Dew Point ( °F °C ) Humidity (%) Winds ( mph kmh ) Pressure ( in mb ) Visibility ( mi km ) Precip ( " mm )
12:15 am 00:15 Clear 60 15.4 55 12.9 85 85 Calm 30.09 1019 10 16 0.00 0.00
12:35 am 00:35 Clear 58 14.4 55 12.6 89 89 Calm 30.09 1019 10 16 0.00 0.00
12:55 am 00:55 Clear 58 14.4 54 12.4 88 88 Calm 30.09 1019 10 16 0.00 0.00
1:15 am 01:15 Clear 56 13.3 54 12.1 93 93 Calm 30.09 1019 10 16 0.00 0.00
1:35 am 01:35 Clear 57 13.9 54 12.4 91 91 Calm 30.09 1019 10 16 0.00 0.00
1:55 am 01:55 Clear 56 13.5 54 12.1 91 91 Calm 30.09 1019 10 16 0.00 0.00
2:15 am 02:15 Clear 56 13.4 54 12.3 93 93 Calm 30.06 1018 10 16 0.00 0.00
2:35 am 02:35 Clear 55 13 54 12 94 94 Calm 30.06 1018 10 16 0.00 0.00
2:55 am 02:55 Clear 56 13.1 53 11.8 92 92 Calm 30.06 1018 10 16 0.00 0.00
3:15 am 03:15 Clear 55 12.8 53 11.6 92 92 Calm 30.06 1018 10 16 0.00 0.00
3:35 am 03:35 Clear 54 12.2 53 11.9 98 98 Calm 30.06 1018 10 16 0.00 0.00
3:55 am 03:55 Clear 53 11.9 52 11.2 96 96 Calm 30.06 1018 10 16 0.00 0.00
4:15 am 04:15 Clear 53 11.5 52 11.2 98 98 Calm 30.06 1018 10 16 0.00 0.00
4:35 am 04:35 Clear 54 12 53 11.4 96 96 Calm 30.06 1018 10 16 0.00 0.00
4:55 am 04:55 Clear 53 11.5 52 10.9 96 96 Calm 30.06 1018 10 16 0.00 0.00
5:15 am 05:15 Clear 52 11.3 52 11 98 98 Calm 30.06 1018 10 16 0.00 0.00
6:00 am 06:00 Mostly Clear 52 11 52 11 100 100 Calm 30.06 1018 7 11 0.00 0.00
6:45 am 06:45 Mostly Clear 52 11 52 11 100 100 Calm 30.06 1018 7 11 0.00 0.00
7:45 am 07:45 Mostly Sunny 52 11 52 11 100 100 Calm 30.06 1018 10 16 0.00 0.00
8:45 am 08:45 Mostly Sunny 57 14 55 13 94 94 Calm 30.09 1019 10 16 0.00 0.00
9:45 am 09:45 Mostly Sunny 64 18 55 13 73 73 Calm 30.09 1019 10 16 0.00 0.00
10:45 am 10:45 Partly Cloudy 66 19 55 13 68 68 SSW 6 9 30.09 1019 10 16 0.00 0.00
11:55 am 11:55 Partly Cloudy 68 20 54 12 60 60 SW 6 9 30.09 1019 10 16 0.00 0.00
2:50 pm 14:50 Partly Cloudy 72 22 54 12 53 53 Calm 30.03 1017 10 16 0.00 0.00
9:50 pm 21:50 Mostly Clear 57 14 55 13 94 94 SSE 5 7 30.03 1017 10 16 0.00 0.00
10:15 pm 22:15 Clear 58 14.3 56 13.5 95 95 SSE 5 7 30.03 1017 10 16 0.00 0.00
10:35 pm 22:35 Clear 59 14.8 57 13.9 94 94 S 6 9 30.03 1017 10 16 0.00 0.00
10:55 pm 22:55 Clear 56 13.6 55 12.9 96 96 SSE 6 9 30.03 1017 10 16 0.00 0.00
11:15 pm 23:15 Clear 56 13.5 55 13 97 97 SSE 6 9 30.03 1017 10 16 0.00 0.00
11:35 pm 23:35 Clear 56 13.2 55 12.8 97 97 S 5 7 30.03 1017 10 16 0.00 0.00
11:55 pm 23:55 Clear 57 13.7 56 13.2 97 97 S 5 7 30.03 1017 10 16 0.00 0.00

Powered by AerisWeather